Regional Weather Roundup
Issued by NWS

Home | Current Version | Previous Version | Graphics & Text | Print | Product List | Glossary On
Versions: 1 2 3 4 5 6 7 8 9 10 11 12 13 14 15 16 17 18 19 20 21 22 23 24 25 26 27 28 29 30 31 32 33 34 35 36 37 38 39 40 41 42 43 44 45 46 47 48 49 50
000
ASUS43 KBIS 231159
RWRND

NORTH DAKOTA REGIONAL WEATHER ROUNDUP
NATIONAL WEATHER SERVICE BISMARCK ND
700 AM CDT WED APR 23 2014

NOTE: "FAIR" INDICATES FEW OR NO CLOUDS BELOW 12,000 FEET WITH NO
SIGNIFICANT WEATHER AND/OR OBSTRUCTIONS TO VISIBILITY.


NDZ001>003-009>011-017-231300-
NORTHWEST NORTH DAKOTA

CITY           SKY/WX    TMP DP  RH WIND       PRES   REMARKS
WILLISTON      CLOUDY    51  38  60 SE24G37   29.43R
6HR MIN TEMP:  51; 6HR MAX TEMP:  54;

MINOT          LGT RAIN  45  41  86 E15G24    29.63F
$$

NDZ018>021-031>035-040>046-231300-
SOUTHWEST NORTH DAKOTA

CITY           SKY/WX    TMP DP  RH WIND       PRES   REMARKS
BISMARCK       CLOUDY    51  38  60 E23G32    29.60F
6HR MIN TEMP:  50; 6HR MAX TEMP:  57; 6HR PCP:  0.03;

GARRISON         N/A     48  50 100 SE23      29.59F
6HR MIN TEMP:  47; 6HR MAX TEMP:  51; 6HR PCP:  0.07;

HETTINGER ARPT CLOUDY    50  36  58 SE18G28   29.44S
$$

NDZ004>008-012>016-024-026-027-054-231300-
NORTHEAST NORTH DAKOTA

CITY           SKY/WX    TMP DP  RH WIND       PRES   REMARKS
GRAND FORKS    CLOUDY    44  28  53 SE17      29.91F
DEVILS LAKE    CLOUDY    43  28  56 SE20      29.81R
$$

NDZ022-023-025-028>030-036>039-047>053-231300-
SOUTHEAST NORTH DAKOTA

CITY           SKY/WX    TMP DP  RH WIND       PRES   REMARKS
FARGO          CLOUDY    48  30  49 SE16      29.92S
6HR MIN TEMP:  47; 6HR MAX TEMP:  49;

$$




USA.gov is the U.S. government's official web portal to all federal, state and local government web resources and services.